Time,TemperatureF,DewpointF,PressureIn,WindDirection,WindDirectionDegrees,WindSpeedMPH,WindSpeedGustMPH,Humidity,HourlyPrecipIn,Conditions,Clouds,dailyrainin,SoftwareType,DateUTC
2013-03-08 00:02:00,30.0,26.0,29.91,NNE,30,7.0,9.0,86,0.00,,,0.00,,2013-03-08 05:02:00,
2013-03-08 00:12:00,30.0,26.0,29.91,NNE,30,7.0,9.0,86,0.00,,,0.00,,2013-03-08 05:12:00,
2013-03-08 00:22:00,30.0,26.0,29.92,NE,38,5.0,9.0,86,0.00,,,0.00,,2013-03-08 05:22:00,
2013-03-08 00:32:00,30.0,26.0,29.91,NE,39,6.0,9.0,86,0.00,,,0.00,,2013-03-08 05:32:00,
2013-03-08 00:42:00,30.0,26.0,29.91,NE,39,6.0,9.0,86,0.00,,,0.00,,2013-03-08 05:42:00,
2013-03-08 00:52:00,30.0,26.0,29.91,NNE,30,8.0,10.0,86,0.00,,,0.00,,2013-03-08 05:52:00,
2013-03-08 01:01:00,30.0,26.0,29.91,NE,39,6.0,9.0,86,0.00,,,0.00,,2013-03-08 06:01:00,
2013-03-08 01:11:00,30.0,26.0,29.91,NE,39,6.0,9.0,86,0.00,,,0.00,,2013-03-08 06:11:00,
2013-03-08 01:22:00,30.0,26.0,29.90,NNE,30,6.0,8.0,86,0.00,,,0.00,,2013-03-08 06:22:00,
2013-03-08 01:32:00,30.0,26.0,29.90,ENE,57,7.0,10.0,86,0.00,,,0.00,,2013-03-08 06:32:00,
2013-03-08 01:42:00,30.0,26.0,29.90,ENE,57,7.0,10.0,86,0.00,,,0.00,,2013-03-08 06:42:00,
2013-03-08 01:52:00,29.0,26.0,29.90,NNE,23,7.0,10.0,87,0.00,,,0.00,,2013-03-08 06:52:00,
2013-03-08 02:01:00,29.0,26.0,29.90,NE,45,5.0,9.0,87,0.00,,,0.00,,2013-03-08 07:01:00,
2013-03-08 02:11:00,29.0,26.0,29.90,NE,45,5.0,9.0,87,0.00,,,0.00,,2013-03-08 07:11:00,
2013-03-08 02:22:00,29.0,26.0,29.89,NNE,28,5.0,9.0,87,0.00,,,0.00,,2013-03-08 07:22:00,
2013-03-08 02:32:00,30.0,27.0,29.88,NE,53,8.0,9.0,87,0.00,,,0.00,,2013-03-08 07:32:00,
2013-03-08 02:42:00,30.0,27.0,29.88,NE,53,8.0,9.0,87,0.00,,,0.00,,2013-03-08 07:42:00,
2013-03-08 02:52:00,30.0,27.0,29.88,NE,45,7.0,10.0,87,0.00,,,0.00,,2013-03-08 07:52:00,
2013-03-08 03:01:00,29.0,26.0,29.88,ENE,65,5.0,8.0,87,0.00,,,0.00,,2013-03-08 08:01:00,
2013-03-08 03:11:00,29.0,26.0,29.88,ENE,65,5.0,8.0,87,0.00,,,0.00,,2013-03-08 08:11:00,
2013-03-08 03:22:00,29.0,26.0,29.88,NE,37,6.0,8.0,87,0.00,,,0.00,,2013-03-08 08:22:00,
2013-03-08 03:32:00,29.0,26.0,29.88,NE,45,5.0,8.0,87,0.00,,,0.00,,2013-03-08 08:32:00,
2013-03-08 03:42:00,29.0,26.0,29.88,NE,45,5.0,8.0,87,0.00,,,0.00,,2013-03-08 08:42:00,
2013-03-08 03:52:00,29.0,26.0,29.88,NE,37,5.0,6.0,87,0.00,,,0.00,,2013-03-08 08:52:00,
2013-03-08 04:03:00,29.0,26.0,29.88,NE,39,5.0,12.0,87,0.00,,,0.00,,2013-03-08 09:03:00,
2013-03-08 04:11:00,29.0,26.0,29.88,NE,39,5.0,12.0,87,0.00,,,0.00,,2013-03-08 09:11:00,
2013-03-08 04:21:00,29.0,26.0,29.88,NE,37,6.0,7.0,87,0.00,,,0.00,,2013-03-08 09:21:00,
2013-03-08 04:32:00,29.0,26.0,29.88,NE,45,4.0,11.0,88,0.00,,,0.00,,2013-03-08 09:32:00,
2013-03-08 04:42:00,29.0,26.0,29.88,NE,45,4.0,11.0,88,0.00,,,0.00,,2013-03-08 09:42:00,
2013-03-08 04:52:00,29.0,26.0,29.88,NE,36,6.0,7.0,88,0.00,,,0.00,,2013-03-08 09:52:00,
2013-03-08 05:01:00,29.0,26.0,29.88,NE,35,4.0,7.0,88,0.00,,,0.00,,2013-03-08 10:01:00,
2013-03-08 05:11:00,29.0,26.0,29.88,NE,35,4.0,7.0,88,0.00,,,0.00,,2013-03-08 10:11:00,
2013-03-08 05:21:00,29.0,26.0,29.88,NE,45,7.0,7.0,88,0.00,,,0.00,,2013-03-08 10:21:00,
2013-03-08 05:32:00,29.0,26.0,29.88,NE,45,7.0,9.0,88,0.00,,,0.00,,2013-03-08 10:32:00,
2013-03-08 05:42:00,29.0,26.0,29.88,NE,45,7.0,9.0,88,0.00,,,0.00,,2013-03-08 10:42:00,
2013-03-08 05:52:00,29.0,26.0,29.88,NNE,23,6.0,9.0,88,0.00,,,0.00,,2013-03-08 10:52:00,
2013-03-08 06:01:00,29.0,26.0,29.88,NE,45,6.0,8.0,88,0.00,,,0.00,,2013-03-08 11:01:00,
2013-03-08 06:11:00,29.0,26.0,29.88,NE,45,6.0,8.0,88,0.00,,,0.00,,2013-03-08 11:11:00,
2013-03-08 06:21:00,29.0,26.0,29.88,NE,44,5.0,9.0,88,0.00,,,0.00,,2013-03-08 11:21:00,
2013-03-08 06:32:00,29.0,26.0,29.88,NE,45,1.0,8.0,88,0.00,,,0.00,,2013-03-08 11:32:00,
2013-03-08 06:42:00,29.0,26.0,29.88,NE,45,1.0,8.0,88,0.00,,,0.00,,2013-03-08 11:42:00,
2013-03-08 06:52:00,29.0,26.0,29.88,NE,53,6.0,7.0,88,0.00,,,0.00,,2013-03-08 11:52:00,
2013-03-08 07:02:00,29.0,26.0,29.89,NE,52,6.0,8.0,88,0.00,,,0.00,,2013-03-08 12:02:00,
2013-03-08 07:11:00,29.0,26.0,29.89,NE,52,6.0,8.0,88,0.00,,,0.00,,2013-03-08 12:11:00,
2013-03-08 07:22:00,29.0,26.0,29.88,NE,52,5.0,8.0,88,0.00,,,0.00,,2013-03-08 12:22:00,
2013-03-08 07:32:00,29.0,26.0,29.88,NNE,33,6.0,9.0,88,0.00,,,0.00,,2013-03-08 12:32:00,
2013-03-08 07:43:00,29.0,26.0,29.88,NNE,33,6.0,9.0,88,0.00,,,0.00,,2013-03-08 12:43:00,
2013-03-08 07:53:00,30.0,27.0,29.88,NE,45,5.0,8.0,88,0.00,,,0.00,,2013-03-08 12:53:00,
2013-03-08 08:01:00,30.0,27.0,29.89,NE,39,5.0,7.0,88,0.00,,,0.00,,2013-03-08 13:01:00,
2013-03-08 08:11:00,30.0,27.0,29.89,NE,39,5.0,7.0,88,0.00,,,0.00,,2013-03-08 13:11:00,
2013-03-08 08:22:00,30.0,27.0,29.89,NE,37,6.0,8.0,88,0.00,,,0.00,,2013-03-08 13:22:00,
2013-03-08 08:32:00,30.0,27.0,29.89,NNE,29,6.0,8.0,88,0.00,,,0.00,,2013-03-08 13:32:00,
2013-03-08 08:42:00,30.0,27.0,29.89,NNE,29,6.0,8.0,88,0.00,,,0.00,,2013-03-08 13:42:00,
2013-03-08 08:52:00,30.0,27.0,29.89,NE,45,7.0,9.0,88,0.00,,,0.00,,2013-03-08 13:52:00,
2013-03-08 09:02:00,30.0,27.0,29.89,NE,39,6.0,11.0,88,0.00,,,0.00,,2013-03-08 14:02:00,
2013-03-08 09:11:00,30.0,27.0,29.89,NE,39,6.0,11.0,88,0.00,,,0.00,,2013-03-08 14:11:00,
2013-03-08 09:22:00,30.0,27.0,29.90,NE,46,7.0,10.0,88,0.00,,,0.00,,2013-03-08 14:22:00,
2013-03-08 09:32:00,31.0,28.0,29.90,NNE,32,7.0,10.0,87,0.00,,,0.00,,2013-03-08 14:32:00,
2013-03-08 09:42:00,31.0,28.0,29.90,NNE,32,7.0,10.0,87,0.00,,,0.00,,2013-03-08 14:42:00,
2013-03-08 09:53:00,31.0,28.0,29.90,NE,45,7.0,8.0,87,0.00,,,0.00,,2013-03-08 14:53:00,
2013-03-08 10:03:00,31.0,27.0,29.90,ENE,57,6.0,11.0,86,0.00,,,0.00,,2013-03-08 15:03:00,
2013-03-08 10:12:00,31.0,27.0,29.90,NE,35,8.0,9.0,86,0.00,,,0.00,,2013-03-08 15:12:00,
2013-03-08 10:22:00,31.0,27.0,29.90,NE,35,8.0,9.0,86,0.00,,,0.00,,2013-03-08 15:22:00,
2013-03-08 10:32:00,31.0,27.0,29.90,NE,37,7.0,10.0,85,0.00,,,0.00,,2013-03-08 15:32:00,
2013-03-08 10:42:00,31.0,27.0,29.90,NE,37,7.0,10.0,85,0.00,,,0.00,,2013-03-08 15:42:00,
2013-03-08 10:53:00,31.0,27.0,29.90,NNE,32,3.0,11.0,84,0.00,,,0.00,,2013-03-08 15:53:00,
2013-03-08 11:01:00,31.0,27.0,29.90,NE,45,7.0,9.0,84,0.00,,,0.00,,2013-03-08 16:01:00,
2013-03-08 11:11:00,31.0,27.0,29.90,NE,45,7.0,9.0,84,0.00,,,0.00,,2013-03-08 16:11:00,
2013-03-08 11:22:00,32.0,27.0,29.91,NE,34,7.0,10.0,83,0.00,,,0.00,,2013-03-08 16:22:00,
2013-03-08 11:32:00,32.0,28.0,29.91,NE,45,8.0,10.0,84,0.00,,,0.00,,2013-03-08 16:32:00,
2013-03-08 11:42:00,32.0,28.0,29.91,NE,45,8.0,10.0,84,0.00,,,0.00,,2013-03-08 16:42:00,
2013-03-08 11:52:00,32.0,28.0,29.92,NE,38,8.0,9.0,84,0.00,,,0.00,,2013-03-08 16:52:00,
2013-03-08 12:03:00,32.0,28.0,29.92,NE,45,8.0,11.0,84,0.00,,,0.00,,2013-03-08 17:03:00,
2013-03-08 12:11:00,32.0,28.0,29.92,NE,45,8.0,11.0,84,0.00,,,0.00,,2013-03-08 17:11:00,
2013-03-08 12:21:00,31.0,27.0,29.92,NE,51,7.0,10.0,85,0.00,,,0.00,,2013-03-08 17:21:00,
2013-03-08 12:32:00,32.0,28.0,29.92,NE,36,8.0,9.0,85,0.00,,,0.00,,2013-03-08 17:32:00,
2013-03-08 12:42:00,32.0,28.0,29.92,NE,36,8.0,9.0,85,0.00,,,0.00,,2013-03-08 17:42:00,
2013-03-08 12:52:00,32.0,28.0,29.92,NE,45,8.0,10.0,85,0.00,,,0.00,,2013-03-08 17:52:00,
2013-03-08 13:02:00,32.0,28.0,29.93,NNE,32,7.0,9.0,85,0.00,,,0.00,,2013-03-08 18:02:00,
2013-03-08 13:11:00,32.0,28.0,29.93,NNE,32,7.0,9.0,85,0.00,,,0.00,,2013-03-08 18:11:00,
2013-03-08 13:21:00,32.0,28.0,29.92,NE,45,7.0,9.0,86,0.00,,,0.00,,2013-03-08 18:21:00,
2013-03-08 13:32:00,32.0,28.0,29.93,NE,45,7.0,10.0,86,0.00,,,0.00,,2013-03-08 18:32:00,
2013-03-08 13:42:00,32.0,28.0,29.93,NE,45,7.0,10.0,86,0.00,,,0.00,,2013-03-08 18:42:00,
2013-03-08 13:52:00,32.0,28.0,29.93,NE,45,6.0,9.0,86,0.00,,,0.00,,2013-03-08 18:52:00,
2013-03-08 14:01:00,32.0,28.0,29.93,NE,45,8.0,10.0,86,0.00,,,0.00,,2013-03-08 19:01:00,
2013-03-08 14:11:00,32.0,28.0,29.93,NE,45,8.0,10.0,86,0.00,,,0.00,,2013-03-08 19:11:00,
2013-03-08 14:22:00,32.0,28.0,29.93,NNE,23,7.0,10.0,86,0.00,,,0.00,,2013-03-08 19:22:00,
2013-03-08 14:32:00,33.0,30.0,29.94,NE,45,6.0,9.0,87,0.00,,,0.00,,2013-03-08 19:32:00,
2013-03-08 14:42:00,33.0,30.0,29.94,NE,45,6.0,9.0,87,0.00,,,0.00,,2013-03-08 19:42:00,
2013-03-08 14:52:00,33.0,30.0,29.94,NE,45,9.0,12.0,87,0.00,,,0.00,,2013-03-08 19:52:00,
2013-03-08 15:01:00,33.0,30.0,29.95,NE,45,7.0,15.0,87,0.00,,,0.00,,2013-03-08 20:01:00,
2013-03-08 15:11:00,33.0,30.0,29.95,NE,45,7.0,15.0,87,0.00,,,0.00,,2013-03-08 20:11:00,
2013-03-08 15:22:00,33.0,30.0,29.94,NE,45,7.0,10.0,87,0.00,,,0.00,,2013-03-08 20:22:00,
2013-03-08 15:32:00,33.0,30.0,29.95,NE,45,7.0,10.0,87,0.00,,,0.00,,2013-03-08 20:32:00,
2013-03-08 15:42:00,33.0,30.0,29.95,NE,45,7.0,10.0,87,0.00,,,0.00,,2013-03-08 20:42:00,
2013-03-08 15:52:00,33.0,30.0,29.96,NE,45,8.0,13.0,87,0.00,,,0.00,,2013-03-08 20:52:00,
2013-03-08 16:02:00,33.0,30.0,29.97,NE,45,7.0,10.0,87,0.00,,,0.00,,2013-03-08 21:02:00,
2013-03-08 16:11:00,33.0,30.0,29.97,NE,45,7.0,10.0,87,0.00,,,0.00,,2013-03-08 21:11:00,
2013-03-08 16:22:00,33.0,30.0,29.98,NE,37,8.0,11.0,87,0.00,,,0.00,,2013-03-08 21:22:00,
2013-03-08 16:32:00,33.0,30.0,29.98,NE,38,7.0,13.0,87,0.00,,,0.00,,2013-03-08 21:32:00,
2013-03-08 16:42:00,33.0,30.0,29.98,NE,38,7.0,13.0,87,0.00,,,0.00,,2013-03-08 21:42:00,
2013-03-08 16:52:00,33.0,30.0,29.98,NNE,30,6.0,10.0,87,0.00,,,0.00,,2013-03-08 21:52:00,
2013-03-08 17:01:00,33.0,30.0,29.99,NE,45,7.0,14.0,87,0.00,,,0.00,,2013-03-08 22:01:00,
2013-03-08 17:11:00,33.0,30.0,29.99,NE,45,7.0,14.0,87,0.00,,,0.00,,2013-03-08 22:11:00,
2013-03-08 17:22:00,33.0,30.0,29.99,NE,51,7.0,14.0,88,0.00,,,0.00,,2013-03-08 22:22:00,
2013-03-08 17:32:00,33.0,30.0,30.00,NE,40,7.0,13.0,88,0.00,,,0.00,,2013-03-08 22:32:00,
2013-03-08 17:42:00,33.0,30.0,30.00,NE,40,7.0,13.0,88,0.00,,,0.00,,2013-03-08 22:42:00,
2013-03-08 17:52:00,33.0,30.0,30.01,NE,50,9.0,18.0,89,0.00,,,0.00,,2013-03-08 22:52:00,
2013-03-08 18:02:00,33.0,30.0,30.02,NE,54,7.0,15.0,89,0.00,,,0.00,,2013-03-08 23:02:00,
2013-03-08 18:12:00,33.0,30.0,30.02,NE,54,7.0,15.0,89,0.00,,,0.00,,2013-03-08 23:12:00,
2013-03-08 18:22:00,33.0,30.0,30.02,NE,45,5.0,14.0,88,0.00,,,0.00,,2013-03-08 23:22:00,
2013-03-08 18:32:00,33.0,30.0,30.03,NE,38,6.0,14.0,87,0.00,,,0.00,,2013-03-08 23:32:00,
2013-03-08 18:42:00,33.0,30.0,30.03,NE,38,6.0,14.0,87,0.00,,,0.00,,2013-03-08 23:42:00,
2013-03-08 18:52:00,34.0,30.0,30.04,NNE,29,4.0,11.0,86,0.00,,,0.00,,2013-03-08 23:52:00,
2013-03-08 19:02:00,34.0,30.0,30.04,ENE,59,4.0,8.0,85,0.00,,,0.00,,2013-03-09 00:02:00,
2013-03-08 19:12:00,34.0,30.0,30.04,ENE,59,4.0,8.0,85,0.00,,,0.00,,2013-03-09 00:12:00,
2013-03-08 19:22:00,34.0,30.0,30.04,NE,36,6.0,8.0,84,0.00,,,0.00,,2013-03-09 00:22:00,
2013-03-08 19:32:00,34.0,29.0,30.04,NE,39,4.0,8.0,83,0.00,,,0.00,,2013-03-09 00:32:00,
2013-03-08 19:42:00,34.0,29.0,30.04,NE,39,4.0,8.0,83,0.00,,,0.00,,2013-03-09 00:42:00,
2013-03-08 19:52:00,34.0,29.0,30.04,NE,40,5.0,8.0,82,0.00,,,0.00,,2013-03-09 00:52:00,
2013-03-08 20:02:00,34.0,29.0,30.05,NNE,23,3.0,57.0,81,0.00,,,0.00,,2013-03-09 01:02:00,
2013-03-08 20:12:00,34.0,29.0,30.05,NE,34,4.0,5.0,81,0.00,,,0.00,,2013-03-09 01:12:00,
2013-03-08 20:22:00,34.0,29.0,30.05,NE,34,4.0,5.0,81,0.00,,,0.00,,2013-03-09 01:22:00,
2013-03-08 20:32:00,34.0,29.0,30.06,NE,36,4.0,6.0,81,0.00,,,0.00,,2013-03-09 01:32:00,
2013-03-08 20:42:00,34.0,29.0,30.06,NE,36,4.0,6.0,81,0.00,,,0.00,,2013-03-09 01:42:00,
2013-03-08 20:51:00,34.0,29.0,30.06,NE,38,5.0,8.0,81,0.00,,,0.00,,2013-03-09 01:51:00,
2013-03-08 21:01:00,34.0,28.0,30.06,NE,45,4.0,7.0,80,0.00,,,0.00,,2013-03-09 02:01:00,
2013-03-08 21:11:00,34.0,28.0,30.06,NE,45,4.0,7.0,80,0.00,,,0.00,,2013-03-09 02:11:00,
2013-03-08 21:21:00,34.0,28.0,30.07,NNE,28,5.0,9.0,80,0.00,,,0.00,,2013-03-09 02:21:00,
2013-03-08 21:31:00,33.0,27.0,30.07,NNE,31,6.0,6.0,79,0.00,,,0.00,,2013-03-09 02:31:00,
2013-03-08 21:41:00,33.0,27.0,30.07,NNE,28,5.0,6.0,79,0.00,,,0.00,,2013-03-09 02:41:00,
2013-03-08 21:51:00,33.0,27.0,30.07,NNE,28,5.0,6.0,79,0.00,,,0.00,,2013-03-09 02:51:00,
2013-03-08 22:01:00,33.0,27.0,30.08,NE,35,6.0,8.0,79,0.00,,,0.00,,2013-03-09 03:01:00,
2013-03-08 22:11:00,33.0,27.0,30.08,NE,35,6.0,8.0,79,0.00,,,0.00,,2013-03-09 03:11:00,
2013-03-08 22:21:00,33.0,27.0,30.08,NE,45,4.0,8.0,79,0.00,,,0.00,,2013-03-09 03:21:00,
2013-03-08 22:31:00,33.0,27.0,30.08,NE,37,5.0,7.0,79,0.00,,,0.00,,2013-03-09 03:31:00,
2013-03-08 22:41:00,33.0,27.0,30.08,NE,37,5.0,7.0,79,0.00,,,0.00,,2013-03-09 03:41:00,
2013-03-08 22:52:00,33.0,27.0,30.08,NNE,23,2.0,5.0,78,0.00,,,0.00,,2013-03-09 03:52:00,
2013-03-08 23:01:00,32.0,26.0,30.08,NE,45,3.0,5.0,78,0.00,,,0.00,,2013-03-09 04:01:00,
2013-03-08 23:11:00,32.0,26.0,30.08,NE,45,3.0,5.0,78,0.00,,,0.00,,2013-03-09 04:11:00,
2013-03-08 23:22:00,32.0,26.0,30.08,NE,45,4.0,5.0,77,0.00,,,0.00,,2013-03-09 04:22:00,
2013-03-08 23:32:00,32.0,25.0,30.08,NNE,29,6.0,7.0,76,0.00,,,0.00,,2013-03-09 04:32:00,
2013-03-08 23:42:00,32.0,25.0,30.08,NNE,29,6.0,7.0,76,0.00,,,0.00,,2013-03-09 04:42:00,
2013-03-08 23:51:00,32.0,25.0,30.08,NE,45,2.0,8.0,76,0.00,,,0.00,,2013-03-09 04:51:00,